| time (UTC) | temp C | wind direction | speed KPH | gust KPH | rain 1hr cm | rain 24hr cm | rain mn cm | humidity % | barometer mb |
| 20260507200059 | 30 | 202 | 11.3 | 22.5 | 0.00 | 0.03 | 0.03 | 67 | 1011.5 |
| 20260507194508 | 30 | 188 | 11.3 | 19.3 | 0.00 | 0.03 | 0.03 | 67 | 1011.7 |
| 20260507193057 | 30 | 178 | 11.3 | 25.7 | 0.00 | 0.03 | 0.03 | 68 | 1011.8 |
| 20260507191517 | 31 | 192 | 9.7 | 17.7 | 0.00 | 0.03 | 0.03 | 67 | 1011.7 |
| 20260507190107 | 31 | 156 | 12.9 | 20.9 | 0.00 | 0.03 | 0.03 | 65 | 1011.6 |
| 20260507184521 | 31 | 177 | 9.7 | 19.3 | 0.03 | 0.03 | 0.03 | 69 | 1011.9 |
| 20260507183105 | 31 | 207 | 16.1 | 25.7 | 0.03 | 0.03 | 0.03 | 68 | 1012.1 |
| 20260507180109 | 30 | 151 | 12.9 | 25.7 | 0.03 | 0.03 | 0.03 | 74 | 1012.5 |
| 20260507174529 | 31 | 153 | 11.3 | 19.3 | 0.00 | 0.00 | 0.00 | 73 | 1012.6 |
| 20260507173116 | 31 | 170 | 14.5 | 27.4 | 0.00 | 0.00 | 0.00 | 69 | 1012.8 |
| 20260507171530 | 32 | 174 | 12.9 | 22.5 | 0.00 | 0.00 | 0.00 | 66 | 1013.1 |
| 20260507170115 | 31 | 141 | 9.7 | 20.9 | 0.00 | 0.00 | 0.00 | 65 | 1013.1 |
| 20260507164550 | 32 | 130 | 14.5 | 24.1 | 0.00 | 0.00 | 0.00 | 65 | 1013.4 |
| 20260507163124 | 31 | 140 | 14.5 | 24.1 | 0.00 | 0.00 | 0.00 | 65 | 1013.5 |
| 20260507161539 | 31 | 115 | 12.9 | 19.3 | 0.00 | 0.00 | 0.00 | 65 | 1013.8 |
| 20260507160127 | 31 | 122 | 12.9 | 20.9 | 0.00 | 0.00 | 0.00 | 67 | 1013.8 |
| 20260507154541 | 31 | 128 | 9.7 | 19.3 | 0.00 | 0.00 | 0.00 | 67 | 1013.9 |
| 20260507153132 | 31 | 130 | 11.3 | 19.3 | 0.00 | 0.00 | 0.00 | 67 | 1013.9 |
| 20260507151513 | 31 | 117 | 6.4 | 22.5 | 0.00 | 0.00 | 0.00 | 67 | 1013.8 |
| 20260507144527 | 31 | 162 | 8.0 | 17.7 | 0.00 | 0.00 | 0.00 | 64 | 1014.0 |
| 20260507143120 | 31 | 125 | 11.3 | 19.3 | 0.00 | 0.00 | 0.00 | 64 | 1014.1 |
| 20260507141559 | 30 | 142 | 11.3 | 19.3 | 0.00 | 0.00 | 0.00 | 66 | 1014.2 |
| 20260507140007 | 30 | 137 | 14.5 | 20.9 | 0.00 | 0.00 | 0.00 | 66 | 1014.2 |
| 20260507134553 | 31 | 176 | 8.0 | 12.9 | 0.00 | 0.00 | 0.00 | 62 | 1014.2 |
| 20260507133013 | 30 | 199 | 6.4 | 11.3 | 0.00 | 0.00 | 0.00 | 62 | 1014.0 |
| 20260507131611 | 30 | 169 | 1.6 | 9.7 | 0.00 | 0.00 | 0.00 | 66 | 1014.0 |
| 20260507130029 | 29 | 261 | 4.8 | 9.7 | 0.00 | 0.00 | 0.00 | 69 | 1014.0 |
| 20260507124610 | 28 | 238 | 3.2 | 6.4 | 0.00 | 0.00 | 0.00 | 70 | 1014.0 |
| 20260507123031 | 27 | 240 | 3.2 | 8.0 | 0.00 | 0.00 | 0.00 | 72 | 1013.8 |
| 20260507121630 | 27 | 234 | 4.8 | 11.3 | 0.00 | 0.00 | 0.00 | 73 | 1013.6 |
| 20260507120044 | 27 | 243 | 4.8 | 12.9 | 0.00 | 0.00 | 0.00 | 73 | 1013.4 |
| 20260507113112 | 26 | 284 | 3.2 | 11.3 | 0.00 | 0.00 | 0.00 | 75 | 1013.0 |
| 20260507111532 | 25 | 252 | 1.6 | 6.4 | 0.00 | 0.00 | 0.00 | 77 | 1013.1 |
| 20260507110130 | 24 | 288 | 6.4 | 14.5 | 0.00 | 0.00 | 0.00 | 78 | 1013.0 |
| 20260507104554 | 23 | 284 | 3.2 | 11.3 | 0.00 | 0.00 | 0.00 | 80 | 1012.9 |
| 20260507103141 | 23 | 311 | 1.6 | 6.4 | 0.00 | 0.00 | 0.00 | 81 | 1012.8 |
| 20260507101547 | 23 | 300 | 1.6 | 8.0 | 0.00 | 0.00 | 0.00 | 80 | 1012.6 |
| 20260507100136 | 23 | 268 | 3.2 | 14.5 | 0.00 | 0.00 | 0.00 | 79 | 1012.5 |
| 20260507094552 | 23 | 267 | 4.8 | 16.1 | 0.00 | 0.00 | 0.00 | 79 | 1012.3 |
| 20260507093010 | 23 | 270 | 3.2 | 16.1 | 0.00 | 0.00 | 0.00 | 80 | 1012.1 |
| 20260507091600 | 23 | 277 | 8.0 | 14.5 | 0.00 | 0.00 | 0.00 | 81 | 1012.3 |
| 20260507090014 | 23 | 260 | 1.6 | 9.7 | 0.00 | 0.00 | 0.00 | 82 | 1012.2 |
| 20260507084608 | 23 | 244 | 3.2 | 9.7 | 0.00 | 0.00 | 0.00 | 82 | 1012.3 |
| 20260507081622 | 24 | 248 | 0.0 | 0.0 | 0.00 | 0.00 | 0.00 | 81 | 1012.4 |
| 20260507080100 | 24 | 258 | 0.0 | 0.0 | 0.00 | 0.00 | 0.00 | 81 | 1012.4 |
| 20260507074504 | 24 | 246 | 0.0 | 14.5 | 0.00 | 0.00 | 0.00 | 82 | 1012.5 |
| 20260507073100 | 24 | 276 | 6.4 | 14.5 | 0.00 | 0.00 | 0.00 | 83 | 1012.4 |
| 20260507071523 | 24 | 277 | 8.0 | 12.9 | 0.00 | 0.00 | 0.00 | 84 | 1012.6 |
| 20260507070110 | 24 | 294 | 1.6 | 6.4 | 0.00 | 0.00 | 0.00 | 84 | 1012.5 |
| 20260507064550 | 24 | 249 | 4.8 | 12.9 | 0.00 | 0.00 | 0.00 | 84 | 1012.7 |
| 20260507063131 | 24 | 257 | 4.8 | 16.1 | 0.00 | 0.00 | 0.00 | 84 | 1012.7 |
| 20260507061546 | 24 | 242 | 11.3 | 16.1 | 0.00 | 0.00 | 0.00 | 84 | 1013.0 |
| 20260507060006 | 25 | 239 | 4.8 | 14.5 | 0.00 | 0.00 | 0.00 | 84 | 1013.1 |
| 20260507054602 | 25 | 250 | 4.8 | 12.9 | 0.00 | 0.00 | 0.00 | 84 | 1013.4 |
| 20260507053012 | 26 | 222 | 4.8 | 14.5 | 0.00 | 0.00 | 0.00 | 84 | 1013.6 |
| 20260507051609 | 26 | 240 | 4.8 | 8.0 | 0.00 | 0.00 | 0.00 | 84 | 1013.6 |
| 20260507050034 | 26 | 303 | 1.6 | 9.7 | 0.00 | 0.00 | 0.00 | 84 | 1013.8 |
| 20260507044612 | 26 | 315 | 1.6 | 8.0 | 0.00 | 0.00 | 0.00 | 85 | 1014.1 |
| 20260507043033 | 26 | 9 | 0.0 | 0.0 | 0.00 | 0.00 | 0.00 | 85 | 1014.2 |
| 20260507041616 | 26 | 341 | 0.0 | 0.0 | 0.00 | 0.00 | 0.00 | 85 | 1014.3 |
| 20260507040052 | 26 | 330 | 0.0 | 0.0 | 0.00 | 0.00 | 0.00 | 84 | 1014.5 |
| 20260507034531 | 26 | 302 | 0.0 | 0.0 | 0.00 | 0.00 | 0.00 | 84 | 1014.8 |
| 20260507033126 | 26 | 296 | 0.0 | 0.0 | 0.00 | 0.00 | 0.00 | 84 | 1014.7 |
| 20260507031544 | 26 | 266 | 0.0 | 0.0 | 0.00 | 0.00 | 0.00 | 83 | 1014.8 |
| 20260507024552 | 26 | 257 | 0.0 | 0.0 | 0.00 | 0.00 | 0.00 | 82 | 1014.9 |
| 20260507023012 | 27 | 184 | 0.0 | 0.0 | 0.00 | 0.00 | 0.00 | 82 | 1014.9 |
| 20260507021605 | 27 | 183 | 0.0 | 0.0 | 0.00 | 0.00 | 0.00 | 81 | 1014.8 |
| 20260507020014 | 27 | 183 | 0.0 | 0.0 | 0.00 | 0.00 | 0.00 | 80 | 1014.7 |
| 20260507014601 | 27 | 240 | 0.0 | 0.0 | 0.00 | 0.00 | 0.00 | 80 | 1014.5 |
| 20260507013018 | 27 | 263 | 0.0 | 8.0 | 0.00 | 0.00 | 0.00 | 80 | 1014.4 |
| 20260507011607 | 27 | 213 | 3.2 | 9.7 | 0.00 | 0.00 | 0.00 | 79 | 1014.3 |
| 20260507010030 | 27 | 209 | 4.8 | 11.3 | 0.00 | 0.00 | 0.00 | 79 | 1014.3 |
| 20260507004609 | 27 | 202 | 4.8 | 11.3 | 0.00 | 0.00 | 0.00 | 79 | 1014.2 |
| 20260507003029 | 28 | 226 | 4.8 | 8.0 | 0.00 | 0.00 | 0.00 | 78 | 1014.2 |
| 20260507001623 | 28 | 205 | 4.8 | 8.0 | 0.00 | 0.00 | 0.00 | 77 | 1013.9 |
| 20260507000038 | 28 | 221 | 4.8 | 8.0 | 0.00 | 0.00 | 0.00 | 77 | 1013.7 |
| 20260506233058 | 28 | 217 | 4.8 | 11.3 | 0.00 | 0.00 | 0.00 | 75 | 1013.6 |
| 20260506231513 | 28 | 178 | 3.2 | 12.9 | 0.00 | 0.00 | 0.00 | 73 | 1013.4 |
| 20260506230129 | 28 | 167 | 8.0 | 12.9 | 0.00 | 0.00 | 0.00 | 72 | 1013.2 |
| 20260506224522 | 29 | 147 | 8.0 | 14.5 | 0.00 | 0.00 | 0.00 | 72 | 1013.0 |
| 20260506223111 | 29 | 169 | 8.0 | 19.3 | 0.00 | 0.00 | 0.00 | 71 | 1012.9 |
| 20260506221529 | 29 | 155 | 6.4 | 16.1 | 0.00 | 0.00 | 0.00 | 71 | 1012.8 |
| 20260506220134 | 30 | 142 | 9.7 | 17.7 | 0.00 | 0.00 | 0.00 | 70 | 1012.6 |
| 20260506214543 | 30 | 124 | 6.4 | 22.5 | 0.00 | 0.00 | 0.00 | 70 | 1012.5 |
| 20260506213127 | 31 | 170 | 9.7 | 16.1 | 0.00 | 0.00 | 0.00 | 69 | 1012.5 |
| 20260506211541 | 31 | 152 | 9.7 | 16.1 | 0.00 | 0.00 | 0.00 | 68 | 1012.3 |
| 20260506210005 | 31 | 156 | 8.0 | 16.1 | 0.00 | 0.00 | 0.00 | 68 | 1012.4 |
| 20260506204606 | 31 | 145 | 9.7 | 19.3 | 0.00 | 0.00 | 0.00 | 67 | 1012.2 |
| 20260506201605 | 32 | 195 | 4.8 | 16.1 | 0.00 | 0.00 | 0.00 | 65 | 1012.3 |